Vorticity
10 10 10 10 9 9 9 9 9 9 8 8 7 7 7 7 6 5 5 5 5 5 5 6 6 6 8 8 7 7 7 7 7 7 6 7 13 13 8 3 1 2 2 3 4 5 5 6 6 5 4 4 5 5 4 4 4 2 3 6 7 6 6 6 6 6 4 6 14 13 6 6 13 11 9 11 7 15 14 2 5 8 5 6 5 6 5 7
8 9 9 9 9 9 9 9 9 9 9 9 9 8 8 8 8 7 7 6 6 5 5 4 5 5 6 8 8 8 8 7 6 8 7 6 8 10 11 9 5 4 3 2 2 2 3 5 6 6 5 4 5 5 5 4 4 3 3 5 8 5 4 4 4 9 2 1 16 15 4 4 8 9 8 8 13 17 8 3 6 6 5 6 6 5 2 6
8 8 7 8 8 8 9 8 9 9 9 9 9 9 9 9 9 9 9 8 8 6 6 5 4 5 5 5 7 8 8 8 7 7 7 8 7 7 8 9 9 7 6 4 2 2 2 3 5 5 5 5 5 5 5 4 4 4 3 4 7 6 6 3 -2 7 11 2 5 10 7 5 7 12 9 3 9 10 1 3 5 3 8 8 6 4 1 6
7 7 7 7 7 7 8 8 8 8 8 8 8 8 8 9 9 9 10 10 10 9 8 7 6 4 4 5 5 6 8 8 8 9 8 7 8 8 7 7 8 8 8 7 5 4 4 4 6 6 6 5 4 5 6 5 5 4 3 4 5 5 6 6 -1 -0 8 3 -2 4 7 9 11 8 6 4 7 5 -1 5 6 4 10 10 7 4 1 5
5 5 6 6 6 6 6 7 7 7 7 7 7 7 7 8 8 8 9 10 10 10 9 9 8 7 5 4 4 4 6 6 7 9 9 8 8 8 9 8 7 7 6 7 7 6 6 5 5 7 8 8 6 6 5 5 5 4 4 4 5 7 5 5 7 3 3 2 2 8 5 12 16 4 4 8 5 8 7 8 7 6 11 11 7 7 4 3
5 5 5 5 5 5 5 6 6 6 7 7 7 7 7 7 7 7 7 8 9 10 10 10 10 10 8 6 5 4 5 5 5 7 7 8 9 8 8 9 9 9 6 5 6 6 5 5 4 5 6 9 9 7 5 5 5 5 4 4 4 6 5 2 4 5 6 3 2 5 -0 8 17 6 5 7 3 10 10 8 9 7 11 10 7 9 7 2
7 7 7 6 6 6 5 5 5 5 6 6 7 6 7 7 7 7 7 7 8 9 10 10 10 10 10 9 7 6 6 6 5 5 5 6 9 9 8 9 9 10 9 8 6 5 5 6 5 4 4 7 9 8 6 4 4 5 3 4 6 5 5 4 1 1 4 6 4 3 -0 2 9 7 7 8 8 9 7 9 11 7 9 9 7 9 8 2
7 7 7 7 7 7 6 6 5 5 5 5 6 6 6 6 7 7 7 7 7 7 8 10 10 10 10 10 10 9 7 6 6 6 5 4 7 9 9 10 10 9 9 10 9 8 7 6 5 6 8 6 6 8 7 6 5 5 3 2 4 4 3 3 2 2 1 3 6 6 6 5 5 7 7 8 10 9 6 9 9 7 8 8 9 8 5 6
7 7 7 7 7 7 7 7 5 5 5 5 6 6 6 6 6 6 6 7 7 7 7 8 10 10 10 9 11 12 10 8 7 6 5 4 6 7 7 9 10 9 9 9 10 10 9 7 5 5 6 4 4 6 8 10 7 3 4 3 2 2 1 1 -0 3 4 2 3 3 5 6 4 5 5 5 9 9 5 6 8 7 8 8 11 8 2 8
7 7 8 8 8 8 7 7 7 6 5 5 5 6 6 6 5 5 6 6 6 6 7 7 9 10 10 10 10 11 11 10 7 7 6 5 6 5 5 6 8 9 9 9 9 9 8 8 6 3 3 3 4 7 10 14 10 3 5 6 5 4 4 6 2 3 4 1 2 4 2 4 4 6 5 3 7 9 4 5 7 6 7 9 10 9 5 8
7 7 7 8 8 8 8 8 7 7 7 6 6 6 6 6 6 5 5 6 5 5 5 6 7 7 9 10 10 11 11 10 8 8 8 6 6 7 5 4 6 8 9 10 8 8 9 9 7 6 5 4 4 6 9 13 13 8 7 7 7 6 6 9 7 4 4 2 4 5 1 2 6 9 8 5 6 7 5 4 6 6 7 9 8 9 8 8
10 9 9 9 9 9 9 9 8 8 8 8 8 7 7 7 7 6 6 6 6 5 4 4 4 4 5 7 8 10 11 11 9 7 9 9 6 8 7 5 4 5 7 9 9 8 8 8 8 9 6 3 2 2 5 9 11 9 6 6 6 6 5 7 11 9 8 8 6 4 1 2 7 8 6 6 7 7 8 5 3 5 6 9 9 8 10 10
13 13 12 11 10 10 10 10 10 9 9 9 9 8 8 7 7 7 8 7 6 6 4 4 3 2 2 3 4 6 8 11 11 8 9 11 8 8 9 8 5 5 5 6 8 9 8 9 9 10 8 5 3 2 2 6 11 12 8 7 5 5 4 4 11 11 7 7 6 7 6 4 4 6 6 6 4 6 11 7 1 3 5 9 9 6 11 11
15 16 16 14 12 11 11 10 10 10 9 9 9 9 9 8 7 7 7 7 7 6 5 5 6 5 4 4 3 3 3 6 9 9 9 11 10 7 8 10 8 7 5 4 6 7 9 9 8 9 11 11 9 5 2 3 8 12 13 12 9 8 5 2 8 9 5 4 5 7 6 5 5 7 12 7 3 7 11 7 3 3 3 7 8 6 10 11
11 13 16 16 16 14 13 11 11 10 10 10 9 9 8 9 9 8 7 6 7 7 6 7 7 8 7 8 7 4 4 4 5 5 6 9 11 9 7 9 9 9 8 7 6 5 6 8 8 8 9 11 11 9 5 3 4 6 10 13 12 12 8 3 6 8 7 4 4 7 3 4 5 5 10 9 7 8 5 5 6 4 3 5 7 6 8 10
8 9 12 15 16 15 15 14 13 12 10 9 10 9 9 8 8 8 8 6 7 7 6 7 7 7 7 9 9 7 7 7 6 5 4 4 8 10 8 7 8 9 9 9 8 6 4 6 8 9 9 9 11 10 9 7 4 2 4 8 8 9 8 7 6 4 8 6 3 6 6 3 4 6 9 8 9 6 1 4 7 5 4 4 7 7 8 9
11 9 10 13 15 15 15 14 15 15 14 12 10 10 10 9 9 8 8 8 7 6 6 6 7 5 5 6 6 6 7 8 8 8 6 4 4 6 7 8 8 8 8 8 9 9 6 5 5 6 8 8 9 9 11 13 9 4 4 5 4 2 4 9 7 2 5 9 6 5 8 6 5 10 10 7 8 6 4 5 5 6 6 5 5 7 7 7
10 9 9 10 14 16 16 15 14 13 13 14 12 12 12 10 10 9 9 8 8 7 6 6 6 5 4 5 4 5 6 7 8 10 10 8 5 4 4 6 7 8 7 7 8 9 8 7 5 5 6 7 9 10 11 14 13 9 5 3 4 4 1 3 6 8 6 6 8 4 8 10 8 11 10 7 6 4 5 6 7 8 5 5 4 5 8 7
14 13 11 8 10 13 15 16 15 14 12 11 11 12 13 12 11 11 11 10 9 9 7 6 7 7 5 4 3 3 4 5 5 7 11 12 10 8 5 3 4 6 7 7 7 9 10 9 7 5 6 7 10 11 11 10 10 11 8 2 2 4 2 -3 -5 2 9 12 11 6 7 10 8 12 11 7 7 6 6 6 9 10 5 7 5 3 7 7
19 18 17 12 9 10 12 13 14 16 15 13 11 9 10 11 10 11 13 12 11 11 9 8 7 7 8 6 6 5 4 5 5 5 6 9 12 12 10 6 4 4 6 6 6 7 8 9 9 9 8 7 6 8 10 9 8 10 11 7 4 3 4 4 -5 -8 -2 7 8 5 8 8 4 9 12 10 10 9 8 5 8 11 6 5 5 4 6 7
14 15 16 15 12 10 10 10 11 14 16 16 15 13 12 11 7 9 12 11 12 13 12 11 9 8 7 6 7 7 6 5 5 5 6 6 7 10 12 11 8 6 4 5 6 6 7 6 8 10 10 9 6 5 6 9 9 7 9 10 9 9 6 8 8 2 -1 3 5 -0 4 9 -0 -1 7 12 12 6 4 5 7 11 8 5 5 4 4 7
12 12 12 14 14 13 12 11 9 10 13 15 16 16 16 15 11 9 9 9 11 12 11 12 12 11 10 7 6 5 6 7 5 5 6 6 5 5 7 10 11 9 6 5 5 5 6 6 6 7 9 11 9 7 4 7 9 7 9 9 8 12 13 11 10 7 5 4 3 1 9 13 -3 -10 -3 8 15 8 4 6 5 9 11 6 5 4 3 5
15 14 12 13 14 14 15 14 12 11 10 12 15 15 16 16 14 13 13 13 13 13 12 12 12 12 12 11 9 7 6 7 7 8 7 6 7 4 4 6 7 9 9 8 6 5 5 5 6 6 7 9 10 10 6 4 8 7 9 10 8 9 15 18 12 5 -0 -8 -10 -5 6 6 -6 -6 -2 3 16 12 8 9 3 11 15 7 5 4 2 4
17 17 15 14 13 13 14 14 15 14 11 12 14 14 15 16 16 16 17 18 20 21 17 16 16 17 18 14 12 12 10 9 9 10 9 9 10 8 6 5 4 6 7 7 7 7 5 4 6 6 5 6 6 9 9 5 6 6 7 11 10 9 13 18 13 8 6 4 2 -1 1 2 1 3 -2 0 12 5 6 10 3 11 17 8 6 3 1 5
17 18 16 15 13 12 13 13 14 16 15 15 16 17 16 18 21 21 21 22 25 26 23 23 23 21 22 21 18 15 14 15 13 12 12 11 13 13 11 8 7 6 6 7 7 6 7 5 5 6 5 6 5 6 9 7 5 4 6 10 11 11 16 19 13 7 8 12 11 4 0 1 3 6 0 4 10 1 7 16 6 9 11 3 4 4 6 7
16 16 16 16 14 13 14 14 14 17 18 16 16 19 18 19 23 21 18 17 17 19 20 21 22 21 20 21 23 20 18 18 15 17 16 13 15 15 13 11 9 10 7 5 6 5 7 6 4 6 5 6 6 6 8 9 7 4 5 10 11 10 14 19 14 4 2 3 2 1 1 -2 -5 1 3 0 -1 -3 10 20 11 6 4 -1 2 7 10 7
16 15 15 16 13 13 14 14 15 17 19 16 15 20 19 18 19 15 11 9 9 12 12 11 15 19 17 15 19 20 18 18 15 21 21 15 18 17 15 15 12 14 12 6 6 6 6 6 5 6 5 5 5 5 7 9 9 7 5 9 10 7 11 18 11 3 3 2 1 -0 2 5 1 -0 2 -4 -10 -6 5 15 17 10 3 1 5 9 10 7
16 14 14 14 12 13 14 15 16 15 15 14 14 19 19 16 15 12 9 9 14 16 12 10 9 11 12 12 16 15 15 16 12 19 23 13 17 21 18 18 13 14 15 10 8 7 7 8 5 3 5 5 5 4 5 7 10 9 5 8 11 9 13 14 6 7 8 1 2 3 1 5 4 1 5 4 1 1 1 9 16 15 10 6 7 10 8 5
13 12 12 12 12 14 15 15 17 14 11 10 10 13 15 14 11 9 9 11 15 16 14 14 9 7 10 9 10 9 11 13 5 11 19 9 11 17 15 17 16 15 17 12 10 10 10 10 8 6 5 4 4 4 4 4 7 9 4 6 9 8 11 9 2 8 11 1 2 5 2 2 -1 -3 -3 -1 6 5 1 7 11 12 12 10 8 8 6 6
10 11 12 13 12 14 17 18 17 14 10 8 8 11 12 13 10 9 12 11 11 10 9 14 12 10 13 12 13 13 14 17 10 10 17 10 8 12 12 14 12 13 18 14 11 11 10 9 9 11 11 10 7 4 5 5 5 9 7 4 7 8 10 9 3 4 7 6 10 5 -2 1 -1 -5 -6 -2 7 6 0 3 6 7 7 10 13 6 1 4
9 10 11 13 13 13 17 19 18 15 11 7 8 11 12 12 11 9 11 10 10 12 9 12 14 11 11 11 13 15 15 17 16 16 21 18 14 14 15 14 10 12 16 15 13 13 12 10 6 6 9 14 16 10 7 7 5 8 8 4 6 9 10 11 8 5 -1 2 16 10 -5 -1 1 -3 0 4 4 2 1 4 10 12 5 4 9 5 1 5
11 12 12 13 12 12 14 17 16 14 13 9 9 13 12 11 12 12 15 13 9 11 11 8 9 10 11 9 8 10 12 12 11 12 14 15 14 15 18 18 13 14 17 15 16 17 19 20 15 12 9 12 19 15 9 10 9 11 13 6 2 6 11 11 9 8 2 -1 14 15 -0 -1 3 2 1 2 -0 -5 -4 1 8 14 12 9 9 8 8 8
13 15 15 15 13 10 12 15 15 13 13 12 11 13 11 10 13 13 13 11 2 3 8 8 10 12 12 11 10 7 7 6 8 11 13 13 11 11 16 18 13 14 17 14 14 13 13 20 23 21 15 11 12 11 10 10 7 8 14 12 6 2 5 9 9 8 6 5 14 18 7 -1 2 6 3 1 1 -5 -6 1 6 14 19 12 10 15 14 7
12 13 14 17 16 12 11 14 15 14 14 13 10 10 10 11 14 13 12 11 7 4 5 8 12 13 10 9 6 2 1 3 5 9 11 9 8 6 9 14 13 13 16 14 14 13 10 15 21 20 15 10 8 9 9 7 4 4 6 12 14 7 2 4 6 7 7 10 17 16 7 -0 1 5 5 6 5 -3 -5 2 7 17 24 14 7 13 9 3
13 13 13 15 16 15 14 13 14 13 12 13 10 8 10 12 14 15 14 12 10 7 8 9 4 -2 -0 2 0 0 4 3 0 1 2 2 6 8 8 13 14 15 19 20 20 18 13 14 18 19 16 12 11 14 15 15 19 18 9 6 9 10 11 8 4 5 4 7 16 15 3 -3 0 3 5 7 5 -1 -0 2 1 4 10 8 5 6 5 2
16 16 15 14 14 17 16 12 11 10 9 11 10 8 11 13 12 14 15 11 7 7 9 12 8 3 4 3 1 3 5 4 2 3 3 2 4 7 7 8 9 11 17 23 24 22 20 19 20 18 18 21 22 21 19 13 12 19 21 17 12 8 9 12 11 11 7 6 16 19 6 -3 -1 4 8 6 -1 -2 2 3 -0 -2 -2 -1 -1 1 4 3
20 19 19 17 15 16 15 12 10 9 9 9 9 10 11 11 10 11 15 14 10 10 7 5 10 15 14 9 5 3 4 5 5 6 8 5 4 7 7 6 6 7 9 12 16 19 21 24 22 15 17 25 22 16 17 12 2 5 10 9 9 11 10 10 9 9 10 11 17 23 18 8 3 -0 -2 -2 -4 -2 7 10 8 9 7 3 4 2 -0 2
22 21 20 18 17 16 15 14 11 9 9 8 9 12 12 12 13 12 14 15 11 12 11 4 5 7 5 6 7 5 8 8 1 1 7 6 5 7 8 8 7 7 7 7 9 13 16 18 17 17 20 23 16 10 16 20 13 10 11 5 0 6 15 17 13 9 5 5 13 27 27 16 16 20 9 0 -4 -10 -3 4 2 5 4 -0 2 2 1 8
22 22 22 20 17 16 15 13 11 9 9 9 11 13 11 14 19 14 12 15 13 12 11 4 5 4 -2 2 6 7 12 11 3 5 11 13 13 13 14 14 10 8 8 7 6 8 11 12 14 20 24 20 12 10 14 21 21 17 24 31 18 2 2 6 11 14 7 0 2 19 32 26 29 45 41 31 24 11 3 2 -4 -5 -6 -5 -0 1 8 17
22 21 22 22 20 18 16 14 13 10 10 10 10 11 12 14 18 15 14 19 17 15 13 8 8 5 -1 0 5 7 8 8 9 12 14 16 13 9 11 11 10 11 10 8 7 8 9 11 13 16 21 21 14 8 7 16 21 9 7 26 28 15 8 4 5 11 13 10 -2 3 27 27 15 20 26 25 24 23 25 24 21 18 4 -4 2 4 12 21
22 20 20 21 21 18 13 13 14 11 12 15 13 11 12 12 13 12 13 18 18 14 14 15 14 10 5 4 4 6 6 5 9 10 9 10 7 4 6 6 6 8 8 8 12 14 12 13 18 17 15 19 20 14 5 5 14 11 1 7 15 15 16 14 9 8 12 13 3 0 6 3 4 12 17 16 8 5 10 5 7 29 32 18 13 10 14 20
20 16 15 14 17 19 15 16 20 15 11 14 17 17 15 12 13 11 9 16 19 14 10 9 11 9 8 7 3 3 7 7 8 8 4 6 8 7 8 6 5 7 9 10 14 20 17 11 18 22 15 14 18 22 11 -5 3 18 13 5 7 9 11 11 6 5 12 15 11 8 -5 -13 6 13 6 14 14 5 10 -0 -14 8 36 35 20 13 16 16
18 12 10 10 17 23 20 23 28 23 19 19 19 19 16 15 21 20 15 15 15 15 13 10 9 8 9 11 6 3 8 8 7 7 6 6 9 10 11 11 10 9 10 9 10 18 19 11 14 21 22 16 9 18 21 -0 -7 13 18 5 2 7 8 9 6 2 11 21 20 17 0 -16 -9 -11 -17 2 11 3 14 20 5 2 21 28 12 5 12 8
20 11 5 9 16 16 13 17 21 21 24 26 24 23 22 22 26 21 16 16 15 17 21 16 12 12 13 16 15 9 9 10 9 9 12 12 11 12 12 13 14 14 14 12 10 13 15 13 13 16 25 26 7 5 23 15 -6 3 19 9 -3 2 6 7 8 1 0 12 21 25 16 -2 -4 -1 -1 8 9 4 10 16 12 7 15 22 10 -1 5 4
20 10 3 9 12 9 8 10 10 11 16 18 18 21 23 23 24 19 16 21 23 23 22 15 15 18 17 19 22 17 11 11 10 9 11 13 12 11 8 9 12 14 13 11 8 8 9 10 12 10 18 29 17 1 11 21 5 -3 14 16 -2 -2 7 6 7 5 -1 2 14 28 26 14 13 14 12 20 20 8 4 9 13 9 10 20 17 3 1 2
16 9 5 9 9 8 11 7 5 9 13 12 11 12 14 14 15 17 17 19 20 19 18 18 21 24 19 16 20 19 13 12 13 9 8 10 11 11 9 10 12 10 10 9 7 7 8 7 10 10 9 17 23 13 4 11 12 -1 6 19 6 -4 2 7 7 4 2 1 8 24 27 12 5 1 0 20 31 17 8 14 16 7 2 9 15 14 8 0
12 11 8 10 8 8 12 9 5 7 11 12 10 9 10 9 8 10 11 10 10 10 13 16 18 20 19 15 17 19 15 14 17 17 14 10 6 6 8 9 10 6 6 8 7 5 6 7 8 10 10 10 18 23 12 7 12 6 4 17 15 -1 -3 6 9 3 3 4 4 17 26 7 -6 -3 -3 9 25 20 9 10 10 2 -0 2 4 14 22 10
10 12 11 13 11 5 7 11 8 5 8 13 11 8 9 9 7 8 8 8 9 8 7 9 10 11 13 11 13 15 12 11 15 17 16 11 6 6 8 9 9 6 4 6 8 4 3 9 9 6 10 11 11 20 22 14 10 6 3 11 17 9 -1 0 6 5 4 5 4 15 23 3 -14 -6 -1 4 20 20 5 6 6 -9 -10 4 8 12 24 21
10 11 10 14 16 10 6 8 9 7 8 9 8 7 8 9 8 8 7 8 9 6 6 9 8 7 8 7 8 9 8 8 9 10 10 9 7 7 7 7 8 6 4 4 7 7 5 7 9 5 6 8 6 10 19 21 18 9 -1 -3 5 17 14 -0 -3 3 5 2 -1 10 22 7 -13 -11 -6 -0 14 15 2 8 17 4 -8 -2 5 8 14 20
11 10 10 10 17 23 17 6 5 9 8 4 4 7 8 8 9 9 8 8 8 6 7 8 8 8 9 9 7 7 7 8 6 5 5 5 6 7 6 9 10 8 7 6 7 9 7 6 9 8 6 8 11 12 11 15 21 19 10 -2 -7 4 17 11 -1 -1 8 8 -5 -3 18 18 -4 -12 -8 0 12 14 2 -3 7 21 19 7 3 7 10 15
11 8 10 8 11 25 26 12 5 8 7 4 4 7 8 8 8 8 8 8 9 9 8 9 9 9 9 9 8 8 10 9 7 7 7 6 8 9 8 9 10 9 10 11 9 8 8 10 12 11 10 12 20 26 23 22 23 19 16 12 -0 -6 4 14 12 3 7 14 0 -11 11 27 10 -9 -11 -3 7 17 16 -0 -9 2 11 13 16 12 5 7
14 6 6 8 7 15 20 13 7 6 6 7 6 6 7 7 6 6 9 10 10 9 8 8 8 7 7 8 9 9 9 9 8 8 9 9 10 11 11 11 11 11 11 13 14 12 11 14 15 14 15 16 21 25 27 35 41 31 17 9 6 7 4 3 13 17 10 8 3 -8 2 23 18 -5 -13 -6 -0 11 21 10 -6 -7 -1 10 30 31 12 6
Height
5876 5875 5875 5875 5874 5874 5874 5874 5874 5873 5873 5873 5873 5873 5873 5874 5874 5874 5875 5876 5876 5876 5877 5877 5878 5879 5880 5880 5881 5881 5881 5881 5881 5882 5883 5884 5885 5886 5887 5889 5889 5891 5892 5893 5894 5895 5896 5897 5899 5900 5900 5902 5903 5905 5906 5907 5907 5907 5907 5907 5907 5908 5909 5909 5909 5909 5909 5909 5908 5909 5909 5909 5910 5909 5909 5909 5909 5914 5914 5911 5910 5912 5913 5914 5915 5915 5915 5915
5873 5873 5872 5872 5872 5872 5871 5871 5871 5871 5871 5871 5871 5871 5871 5871 5871 5872 5872 5873 5874 5874 5875 5875 5876 5877 5877 5878 5879 5880 5880 5880 5879 5880 5881 5883 5884 5884 5885 5887 5888 5889 5891 5891 5893 5894 5895 5896 5898 5899 5899 5901 5902 5904 5905 5906 5907 5906 5907 5907 5907 5908 5908 5909 5909 5910 5909 5909 5909 5909 5909 5910 5911 5909 5909 5908 5910 5915 5914 5911 5911 5912 5913 5914 5915 5915 5916 5915
5871 5871 5870 5869 5869 5869 5869 5869 5868 5868 5868 5868 5868 5868 5868 5868 5869 5869 5870 5871 5871 5872 5873 5873 5874 5874 5875 5876 5877 5878 5878 5878 5878 5879 5880 5881 5882 5883 5884 5885 5886 5887 5889 5890 5891 5892 5894 5895 5896 5897 5898 5899 5901 5903 5905 5906 5906 5906 5906 5907 5907 5907 5908 5909 5910 5910 5909 5909 5910 5909 5909 5910 5911 5909 5910 5910 5912 5915 5912 5910 5911 5912 5913 5914 5915 5915 5916 5916
5870 5869 5868 5867 5867 5866 5866 5866 5866 5866 5866 5866 5866 5866 5866 5866 5866 5867 5867 5868 5869 5869 5870 5871 5872 5872 5873 5873 5874 5875 5876 5876 5877 5878 5879 5879 5880 5881 5882 5883 5884 5886 5887 5888 5889 5890 5893 5894 5895 5895 5896 5898 5899 5901 5903 5905 5906 5905 5905 5905 5906 5906 5906 5908 5909 5910 5908 5908 5910 5909 5909 5911 5911 5911 5911 5912 5913 5914 5911 5910 5911 5912 5913 5914 5915 5916 5916 5916
5868 5867 5866 5865 5865 5864 5864 5864 5863 5863 5863 5863 5863 5863 5863 5863 5863 5864 5864 5865 5866 5867 5867 5868 5869 5870 5871 5871 5872 5873 5873 5873 5875 5876 5877 5877 5878 5879 5880 5881 5882 5884 5885 5885 5886 5888 5890 5892 5893 5894 5895 5896 5898 5900 5901 5903 5904 5904 5904 5904 5905 5905 5905 5907 5909 5910 5909 5908 5909 5910 5910 5911 5912 5912 5911 5912 5913 5912 5911 5911 5912 5912 5913 5914 5915 5916 5917 5917
5866 5865 5864 5863 5863 5862 5862 5861 5861 5861 5861 5861 5860 5860 5861 5861 5861 5861 5862 5862 5863 5864 5865 5866 5867 5868 5868 5869 5869 5870 5871 5871 5872 5874 5874 5875 5876 5877 5878 5879 5880 5882 5882 5883 5884 5886 5888 5890 5892 5893 5893 5895 5896 5897 5899 5902 5903 5904 5904 5904 5904 5904 5904 5905 5908 5909 5909 5908 5909 5909 5910 5911 5911 5911 5912 5912 5912 5912 5912 5913 5912 5912 5913 5914 5915 5916 5917 5917
5863 5862 5861 5861 5860 5860 5859 5859 5858 5858 5858 5858 5858 5858 5858 5858 5858 5858 5859 5859 5860 5861 5862 5863 5864 5865 5866 5866 5867 5868 5869 5869 5869 5870 5872 5873 5874 5875 5876 5877 5878 5880 5880 5881 5883 5884 5886 5888 5890 5891 5892 5893 5894 5894 5897 5899 5901 5903 5904 5903 5903 5903 5902 5903 5906 5908 5908 5908 5908 5908 5909 5910 5910 5911 5911 5912 5913 5912 5913 5914 5913 5913 5913 5914 5914 5915 5917 5917
5859 5858 5858 5858 5857 5857 5856 5856 5856 5856 5855 5855 5855 5855 5855 5855 5855 5856 5856 5857 5858 5858 5859 5861 5861 5862 5863 5863 5865 5866 5867 5866 5865 5867 5869 5870 5871 5873 5874 5875 5876 5877 5878 5879 5881 5882 5884 5886 5888 5889 5890 5891 5891 5891 5894 5897 5899 5901 5902 5902 5901 5902 5901 5901 5904 5906 5907 5908 5909 5908 5909 5910 5910 5910 5910 5912 5914 5913 5913 5914 5914 5913 5913 5914 5914 5915 5916 5917
5855 5855 5854 5854 5853 5853 5853 5853 5853 5853 5853 5853 5852 5852 5852 5852 5853 5853 5853 5854 5855 5856 5857 5858 5859 5860 5860 5861 5862 5864 5865 5865 5863 5863 5866 5868 5869 5870 5872 5873 5874 5874 5876 5877 5879 5880 5882 5883 5885 5886 5887 5888 5888 5889 5892 5896 5898 5898 5899 5900 5900 5900 5900 5900 5902 5905 5906 5908 5910 5909 5909 5909 5909 5909 5909 5911 5913 5913 5913 5914 5914 5913 5913 5914 5914 5915 5916 5917
5851 5851 5850 5850 5849 5849 5849 5849 5849 5849 5849 5849 5849 5849 5849 5850 5850 5850 5851 5851 5852 5853 5854 5855 5856 5857 5858 5858 5859 5861 5862 5862 5860 5860 5863 5865 5867 5868 5869 5870 5871 5872 5874 5875 5877 5878 5879 5880 5882 5883 5884 5886 5887 5889 5891 5894 5895 5896 5898 5899 5900 5900 5900 5900 5902 5904 5905 5907 5909 5910 5909 5909 5909 5909 5910 5910 5913 5914 5913 5913 5913 5912 5913 5914 5915 5915 5915 5916
5847 5846 5846 5845 5845 5845 5844 5844 5844 5845 5845 5845 5846 5846 5846 5846 5847 5847 5848 5849 5849 5850 5851 5852 5853 5854 5855 5856 5857 5858 5859 5860 5859 5858 5860 5863 5864 5865 5866 5868 5869 5870 5871 5873 5874 5875 5876 5878 5879 5881 5883 5884 5886 5887 5889 5891 5892 5894 5897 5899 5900 5900 5901 5900 5901 5904 5904 5905 5908 5910 5910 5909 5909 5910 5910 5910 5913 5914 5912 5912 5912 5912 5913 5914 5915 5915 5916 5916
5842 5841 5841 5840 5840 5840 5840 5840 5840 5840 5840 5841 5841 5842 5843 5843 5843 5844 5845 5845 5846 5847 5848 5849 5850 5851 5852 5853 5854 5855 5856 5857 5857 5857 5858 5860 5862 5862 5863 5865 5866 5868 5869 5870 5871 5872 5873 5875 5877 5879 5880 5882 5883 5885 5887 5888 5890 5893 5895 5897 5898 5899 5900 5899 5900 5902 5903 5903 5906 5908 5909 5909 5909 5910 5909 5910 5912 5913 5912 5911 5911 5912 5914 5915 5915 5916 5916 5916
5838 5836 5836 5835 5835 5835 5835 5835 5835 5836 5836 5836 5837 5837 5838 5839 5840 5840 5841 5842 5843 5844 5845 5846 5847 5848 5849 5850 5851 5852 5853 5854 5855 5855 5856 5857 5859 5859 5861 5862 5864 5865 5866 5867 5868 5870 5871 5873 5875 5877 5878 5879 5881 5883 5886 5887 5889 5892 5894 5895 5897 5897 5899 5899 5898 5900 5902 5902 5904 5906 5907 5908 5909 5909 5909 5910 5910 5911 5911 5911 5911 5912 5914 5915 5916 5916 5916 5917
5833 5832 5831 5830 5830 5830 5830 5830 5830 5831 5831 5832 5832 5833 5833 5835 5836 5837 5837 5838 5839 5841 5842 5843 5844 5845 5846 5847 5848 5850 5850 5851 5852 5853 5853 5855 5856 5857 5858 5859 5861 5862 5863 5864 5865 5867 5869 5870 5872 5874 5876 5878 5880 5882 5884 5886 5888 5890 5892 5894 5896 5897 5898 5898 5897 5898 5900 5901 5902 5904 5906 5907 5909 5909 5909 5910 5909 5910 5912 5912 5912 5912 5913 5915 5916 5916 5917 5917
5829 5828 5827 5826 5825 5825 5825 5825 5825 5826 5827 5827 5828 5828 5829 5830 5831 5832 5833 5834 5835 5837 5838 5840 5840 5842 5842 5843 5845 5846 5847 5848 5849 5850 5851 5852 5853 5854 5855 5856 5858 5859 5860 5862 5863 5865 5866 5868 5870 5872 5874 5876 5878 5880 5881 5884 5887 5889 5891 5893 5895 5896 5896 5897 5897 5896 5897 5900 5901 5902 5904 5906 5908 5909 5909 5909 5909 5910 5912 5912 5912 5913 5913 5914 5916 5916 5917 5917
5825 5824 5823 5822 5821 5820 5820 5820 5821 5821 5822 5823 5823 5823 5824 5825 5826 5827 5829 5830 5831 5833 5835 5835 5837 5838 5839 5840 5841 5843 5844 5844 5846 5847 5848 5849 5851 5852 5853 5853 5855 5856 5858 5859 5860 5862 5863 5865 5868 5870 5871 5873 5875 5877 5879 5883 5885 5887 5889 5891 5893 5895 5896 5896 5896 5896 5896 5898 5900 5901 5902 5904 5905 5907 5908 5908 5908 5909 5911 5912 5912 5912 5914 5915 5916 5916 5917 5917
5820 5819 5818 5817 5816 5816 5816 5816 5816 5816 5817 5818 5818 5819 5819 5821 5822 5822 5824 5825 5826 5829 5830 5831 5833 5834 5835 5836 5837 5838 5840 5841 5843 5844 5845 5846 5848 5849 5850 5851 5852 5853 5854 5856 5857 5859 5861 5863 5865 5867 5868 5870 5872 5875 5878 5881 5883 5885 5887 5889 5891 5893 5894 5895 5896 5896 5896 5897 5899 5900 5901 5902 5903 5905 5907 5907 5908 5909 5910 5911 5911 5912 5913 5915 5916 5916 5916 5916
5816 5815 5813 5813 5812 5811 5811 5811 5811 5812 5812 5813 5813 5814 5814 5816 5817 5817 5818 5820 5822 5824 5826 5827 5828 5830 5831 5833 5834 5835 5836 5838 5839 5840 5841 5843 5844 5846 5847 5848 5849 5850 5851 5853 5855 5856 5858 5860 5862 5864 5866 5868 5871 5873 5876 5878 5879 5881 5884 5886 5887 5888 5890 5892 5894 5895 5895 5895 5896 5898 5899 5901 5901 5903 5905 5906 5907 5908 5909 5910 5910 5911 5912 5914 5915 5916 5916 5917
5811 5810 5809 5808 5807 5806 5806 5806 5807 5807 5807 5808 5808 5809 5809 5811 5812 5812 5813 5815 5816 5819 5820 5822 5823 5825 5827 5829 5830 5830 5832 5833 5835 5836 5837 5839 5841 5842 5844 5845 5846 5847 5848 5850 5852 5853 5855 5857 5859 5861 5864 5867 5869 5872 5873 5874 5875 5877 5880 5881 5882 5884 5887 5889 5891 5892 5893 5893 5894 5896 5897 5899 5900 5902 5903 5905 5907 5908 5909 5909 5910 5910 5911 5912 5914 5915 5916 5917
5806 5805 5804 5803 5803 5802 5801 5802 5802 5802 5802 5802 5803 5803 5804 5805 5807 5807 5808 5810 5811 5813 5815 5817 5818 5820 5822 5824 5825 5826 5827 5829 5832 5832 5834 5836 5837 5839 5840 5842 5843 5844 5846 5847 5849 5850 5852 5854 5856 5860 5863 5864 5866 5868 5869 5870 5872 5874 5876 5878 5880 5883 5886 5888 5889 5889 5890 5891 5892 5893 5894 5896 5899 5900 5902 5904 5906 5908 5909 5909 5909 5910 5911 5912 5913 5915 5916 5917
5802 5801 5800 5799 5798 5797 5797 5797 5798 5797 5797 5798 5798 5798 5798 5800 5801 5802 5803 5805 5806 5808 5810 5812 5814 5815 5817 5819 5820 5821 5823 5825 5828 5828 5830 5832 5833 5835 5836 5839 5840 5841 5842 5844 5845 5847 5849 5851 5855 5858 5859 5861 5863 5864 5866 5867 5869 5871 5873 5876 5879 5883 5886 5888 5888 5888 5889 5889 5891 5891 5892 5894 5897 5899 5901 5903 5905 5907 5908 5908 5908 5909 5910 5911 5913 5914 5915 5916
5797 5796 5795 5794 5794 5793 5792 5793 5793 5793 5793 5793 5793 5793 5793 5795 5796 5798 5799 5800 5801 5803 5805 5807 5809 5809 5811 5814 5815 5816 5818 5821 5823 5824 5825 5828 5830 5831 5833 5835 5836 5837 5839 5841 5842 5844 5846 5849 5853 5855 5856 5857 5859 5861 5863 5864 5867 5868 5870 5873 5876 5881 5884 5886 5886 5886 5886 5887 5889 5889 5890 5892 5895 5897 5899 5902 5904 5905 5906 5907 5908 5908 5910 5911 5912 5913 5914 5915
5793 5792 5791 5790 5789 5789 5788 5788 5788 5788 5788 5788 5788 5788 5789 5790 5792 5793 5794 5795 5796 5798 5799 5801 5803 5804 5806 5808 5810 5811 5813 5817 5819 5818 5820 5824 5826 5827 5829 5830 5832 5834 5835 5837 5839 5841 5844 5847 5850 5852 5853 5854 5856 5858 5860 5861 5864 5866 5867 5871 5875 5878 5881 5883 5883 5883 5882 5883 5885 5886 5888 5890 5893 5895 5897 5900 5903 5904 5905 5906 5907 5908 5909 5910 5911 5912 5913 5914
5789 5788 5787 5786 5785 5785 5784 5784 5784 5784 5784 5784 5784 5784 5785 5787 5788 5788 5789 5791 5792 5793 5794 5796 5798 5799 5800 5802 5804 5806 5809 5813 5813 5812 5816 5819 5821 5822 5824 5825 5827 5829 5831 5833 5835 5837 5840 5843 5845 5847 5849 5850 5852 5854 5856 5858 5861 5863 5865 5869 5873 5876 5879 5881 5881 5880 5881 5883 5883 5884 5885 5887 5889 5891 5895 5898 5901 5903 5904 5904 5906 5907 5908 5909 5911 5912 5913 5913
5785 5784 5784 5782 5781 5780 5780 5780 5780 5779 5779 5780 5780 5780 5782 5783 5784 5784 5786 5787 5788 5789 5790 5791 5793 5794 5795 5797 5799 5801 5804 5808 5807 5808 5812 5814 5815 5817 5818 5821 5823 5825 5827 5829 5831 5833 5836 5839 5841 5843 5845 5847 5849 5851 5853 5855 5858 5861 5863 5867 5871 5874 5877 5879 5879 5879 5881 5882 5882 5882 5882 5884 5886 5889 5892 5896 5899 5901 5902 5903 5905 5906 5907 5909 5910 5911 5912 5913
5782 5781 5780 5780 5778 5777 5777 5777 5776 5776 5776 5776 5776 5777 5778 5779 5780 5781 5782 5784 5785 5786 5787 5787 5789 5790 5791 5793 5795 5797 5799 5801 5802 5805 5808 5808 5810 5812 5813 5816 5818 5819 5821 5824 5827 5830 5832 5835 5837 5840 5842 5844 5846 5849 5850 5852 5855 5858 5862 5865 5868 5870 5873 5875 5876 5877 5879 5880 5880 5879 5880 5882 5883 5885 5889 5893 5897 5900 5901 5902 5903 5904 5906 5907 5909 5910 5911 5913
5779 5778 5777 5777 5776 5774 5774 5773 5773 5773 5773 5773 5773 5774 5775 5776 5777 5778 5779 5781 5782 5783 5784 5785 5786 5787 5788 5789 5791 5793 5794 5796 5799 5801 5802 5803 5805 5807 5809 5811 5813 5814 5816 5820 5823 5826 5828 5831 5833 5836 5838 5840 5843 5846 5848 5849 5852 5856 5860 5862 5864 5867 5869 5871 5872 5874 5877 5878 5877 5877 5878 5879 5879 5882 5886 5890 5894 5896 5899 5901 5902 5903 5905 5906 5908 5909 5911 5912
5777 5775 5774 5774 5773 5772 5771 5770 5770 5770 5770 5770 5771 5772 5773 5773 5774 5775 5777 5778 5780 5780 5781 5782 5783 5784 5785 5786 5788 5789 5790 5792 5795 5797 5798 5799 5800 5802 5804 5806 5808 5809 5812 5816 5819 5822 5825 5826 5828 5831 5834 5836 5840 5843 5844 5846 5849 5854 5857 5858 5861 5864 5866 5867 5868 5870 5873 5874 5874 5875 5877 5877 5877 5880 5884 5886 5889 5893 5897 5899 5900 5902 5904 5905 5907 5908 5910 5911
5774 5773 5772 5771 5771 5770 5768 5767 5767 5768 5768 5768 5769 5769 5770 5771 5772 5773 5774 5776 5777 5777 5778 5779 5781 5781 5782 5783 5785 5786 5788 5790 5792 5793 5794 5795 5795 5798 5799 5800 5803 5805 5809 5813 5815 5818 5820 5822 5826 5829 5831 5833 5836 5838 5839 5841 5844 5849 5852 5854 5857 5860 5862 5864 5864 5866 5869 5868 5871 5874 5874 5875 5875 5878 5880 5881 5884 5890 5894 5897 5899 5901 5903 5904 5906 5907 5909 5910
5773 5771 5769 5768 5768 5767 5766 5765 5765 5765 5766 5766 5767 5767 5768 5768 5769 5770 5771 5773 5774 5774 5775 5776 5778 5778 5779 5781 5782 5784 5786 5787 5789 5789 5790 5791 5791 5793 5794 5796 5799 5802 5805 5809 5811 5813 5815 5818 5822 5826 5828 5831 5832 5834 5837 5839 5840 5843 5847 5849 5853 5856 5859 5860 5860 5863 5864 5865 5869 5872 5871 5872 5873 5874 5877 5879 5883 5889 5892 5894 5897 5898 5900 5902 5904 5906 5908 5909
5770 5769 5768 5766 5765 5764 5764 5763 5763 5763 5764 5764 5765 5765 5765 5766 5766 5767 5768 5769 5770 5771 5772 5774 5775 5776 5777 5779 5779 5781 5783 5785 5785 5786 5787 5787 5787 5788 5790 5794 5797 5800 5802 5804 5807 5809 5812 5815 5817 5821 5825 5826 5828 5831 5834 5836 5836 5839 5843 5845 5848 5850 5854 5857 5858 5859 5859 5862 5868 5870 5867 5868 5870 5872 5875 5878 5883 5887 5890 5892 5894 5897 5898 5901 5903 5905 5906 5908
5768 5766 5765 5764 5763 5762 5761 5761 5761 5761 5762 5762 5763 5763 5763 5763 5764 5765 5766 5766 5767 5768 5770 5772 5773 5773 5774 5776 5778 5779 5780 5782 5782 5783 5784 5783 5783 5784 5788 5792 5795 5797 5798 5800 5803 5806 5809 5811 5813 5816 5818 5819 5821 5825 5828 5831 5832 5835 5839 5842 5843 5845 5849 5852 5854 5855 5856 5860 5866 5867 5866 5866 5869 5872 5873 5876 5881 5883 5887 5890 5893 5895 5897 5899 5901 5903 5904 5906
5765 5764 5762 5761 5761 5760 5759 5759 5759 5759 5760 5760 5760 5760 5760 5761 5761 5762 5763 5763 5764 5766 5768 5770 5771 5771 5772 5774 5776 5777 5778 5779 5780 5780 5780 5779 5779 5782 5786 5789 5792 5794 5795 5797 5799 5803 5806 5808 5810 5811 5812 5812 5815 5819 5823 5826 5827 5830 5835 5838 5839 5841 5843 5846 5850 5852 5854 5858 5864 5865 5864 5863 5867 5871 5872 5875 5879 5882 5885 5888 5890 5893 5895 5898 5900 5901 5903 5904
5762 5761 5759 5758 5758 5757 5757 5756 5757 5757 5757 5757 5757 5757 5757 5758 5759 5760 5760 5761 5763 5764 5766 5767 5769 5770 5770 5772 5774 5775 5776 5777 5778 5777 5776 5776 5778 5781 5784 5787 5789 5790 5792 5793 5796 5800 5803 5804 5806 5807 5807 5808 5812 5816 5819 5821 5824 5827 5830 5834 5837 5838 5840 5843 5846 5849 5851 5855 5861 5864 5862 5861 5865 5871 5873 5875 5879 5881 5883 5886 5888 5890 5892 5895 5897 5899 5900 5902
5759 5758 5757 5756 5755 5755 5754 5754 5754 5755 5755 5755 5754 5754 5755 5757 5757 5757 5758 5759 5761 5762 5763 5766 5767 5767 5768 5769 5770 5772 5773 5774 5775 5773 5773 5775 5777 5780 5783 5785 5787 5787 5789 5791 5792 5796 5798 5800 5802 5803 5803 5806 5810 5814 5815 5817 5822 5824 5825 5830 5833 5835 5838 5841 5843 5846 5848 5850 5856 5860 5858 5858 5864 5870 5873 5875 5876 5878 5881 5884 5886 5888 5890 5892 5894 5895 5898 5900
5756 5755 5754 5753 5752 5752 5752 5752 5752 5752 5752 5752 5752 5752 5753 5754 5755 5755 5756 5757 5758 5759 5761 5764 5764 5764 5766 5767 5768 5769 5770 5771 5771 5770 5772 5775 5776 5778 5781 5783 5783 5784 5786 5788 5789 5792 5795 5796 5798 5800 5802 5804 5808 5809 5809 5813 5818 5820 5823 5827 5829 5831 5835 5838 5840 5842 5843 5845 5850 5855 5856 5857 5862 5868 5871 5872 5873 5875 5876 5879 5882 5885 5888 5889 5891 5894 5896 5899
5754 5752 5751 5750 5750 5749 5749 5750 5750 5750 5750 5749 5750 5751 5751 5752 5752 5753 5754 5755 5755 5757 5759 5760 5761 5762 5764 5764 5765 5767 5768 5769 5768 5767 5770 5773 5775 5776 5778 5779 5780 5781 5783 5785 5786 5789 5792 5793 5794 5796 5799 5801 5804 5805 5807 5811 5814 5816 5819 5821 5823 5827 5830 5833 5835 5838 5840 5841 5845 5851 5856 5857 5859 5865 5869 5871 5872 5873 5874 5875 5877 5880 5883 5885 5888 5892 5895 5897
5751 5750 5748 5748 5747 5747 5747 5747 5748 5748 5747 5747 5748 5749 5749 5750 5751 5751 5752 5753 5754 5756 5757 5758 5759 5761 5762 5762 5763 5765 5765 5765 5764 5765 5768 5771 5772 5774 5775 5776 5777 5779 5780 5782 5784 5785 5788 5790 5790 5793 5797 5798 5800 5803 5806 5808 5811 5814 5815 5815 5818 5823 5826 5828 5830 5833 5836 5838 5840 5847 5853 5856 5858 5863 5868 5870 5871 5873 5874 5873 5874 5877 5879 5881 5885 5889 5892 5895
5749 5748 5746 5746 5745 5745 5745 5745 5745 5746 5745 5746 5747 5747 5747 5748 5749 5749 5750 5751 5752 5754 5755 5756 5757 5759 5759 5760 5761 5762 5761 5761 5762 5764 5767 5768 5769 5771 5772 5772 5773 5775 5778 5780 5781 5782 5785 5787 5788 5791 5794 5796 5798 5801 5804 5806 5808 5812 5813 5812 5813 5815 5817 5820 5824 5828 5832 5835 5838 5843 5849 5855 5857 5859 5861 5864 5866 5869 5872 5873 5872 5874 5876 5879 5882 5885 5889 5893
5748 5746 5745 5744 5744 5744 5744 5744 5744 5744 5744 5744 5744 5744 5745 5746 5747 5747 5748 5748 5750 5751 5752 5754 5756 5757 5758 5759 5759 5759 5759 5759 5761 5764 5765 5765 5767 5767 5768 5769 5770 5772 5775 5777 5778 5780 5782 5784 5786 5789 5791 5794 5796 5798 5801 5802 5805 5808 5809 5808 5809 5810 5812 5815 5820 5824 5828 5831 5835 5840 5847 5851 5849 5848 5850 5854 5857 5859 5863 5866 5869 5871 5873 5876 5879 5883 5887 5890
5747 5745 5744 5744 5743 5743 5743 5743 5743 5743 5742 5743 5743 5743 5744 5744 5744 5745 5746 5747 5748 5748 5749 5751 5753 5754 5755 5756 5756 5757 5757 5758 5761 5763 5763 5763 5764 5764 5764 5766 5767 5770 5772 5774 5776 5778 5779 5781 5784 5787 5789 5792 5794 5794 5797 5799 5800 5802 5803 5803 5805 5807 5811 5815 5818 5820 5823 5826 5830 5836 5844 5845 5840 5842 5846 5848 5849 5851 5854 5857 5862 5866 5869 5872 5876 5879 5883 5887
5746 5745 5745 5744 5743 5743 5743 5742 5742 5742 5741 5741 5741 5741 5742 5741 5742 5744 5744 5745 5746 5747 5747 5748 5749 5751 5752 5753 5754 5755 5756 5757 5759 5760 5759 5760 5761 5761 5761 5763 5764 5767 5769 5772 5773 5775 5777 5778 5782 5784 5786 5790 5791 5790 5793 5796 5797 5798 5799 5800 5802 5804 5807 5811 5813 5814 5817 5821 5824 5831 5838 5837 5835 5839 5842 5842 5844 5848 5852 5855 5857 5861 5865 5869 5873 5876 5880 5883
5747 5746 5745 5744 5744 5743 5742 5742 5741 5741 5740 5740 5740 5740 5740 5740 5741 5742 5743 5743 5744 5745 5746 5747 5749 5750 5750 5751 5752 5752 5753 5755 5756 5756 5756 5756 5757 5758 5759 5761 5762 5764 5767 5768 5770 5772 5774 5775 5778 5781 5783 5787 5787 5787 5790 5793 5793 5794 5795 5797 5799 5801 5803 5805 5808 5810 5813 5816 5820 5826 5831 5832 5833 5835 5837 5838 5841 5845 5849 5852 5853 5856 5860 5864 5869 5872 5876 5879
5748 5747 5746 5745 5745 5744 5743 5742 5741 5741 5740 5740 5740 5739 5740 5740 5740 5741 5741 5741 5742 5744 5745 5746 5747 5747 5748 5749 5751 5750 5751 5752 5752 5752 5752 5753 5754 5755 5756 5759 5761 5764 5765 5765 5766 5768 5770 5771 5774 5777 5780 5783 5783 5783 5786 5789 5789 5789 5791 5793 5795 5796 5798 5801 5804 5808 5810 5812 5816 5820 5823 5826 5830 5832 5832 5834 5837 5841 5844 5847 5849 5852 5855 5858 5863 5867 5870 5873
5748 5747 5746 5746 5746 5745 5744 5743 5742 5741 5741 5740 5740 5740 5739 5740 5740 5740 5740 5740 5741 5742 5744 5744 5745 5745 5746 5748 5749 5750 5750 5750 5750 5750 5750 5750 5752 5753 5754 5756 5759 5761 5762 5762 5763 5764 5766 5768 5771 5773 5776 5778 5778 5778 5780 5782 5783 5785 5787 5789 5790 5792 5795 5798 5802 5806 5808 5810 5812 5815 5818 5823 5827 5828 5828 5829 5833 5837 5840 5843 5846 5849 5850 5853 5858 5863 5866 5868
5748 5747 5747 5747 5746 5745 5745 5743 5742 5742 5742 5741 5741 5741 5741 5740 5740 5740 5740 5741 5741 5741 5742 5743 5744 5745 5746 5746 5747 5748 5749 5749 5749 5749 5749 5748 5749 5750 5752 5753 5754 5756 5758 5758 5759 5760 5762 5764 5766 5769 5771 5773 5773 5773 5774 5777 5780 5781 5783 5785 5787 5788 5791 5794 5799 5802 5804 5806 5808 5810 5815 5820 5822 5822 5822 5823 5827 5832 5836 5839 5841 5843 5846 5850 5855 5858 5862 5864
5749 5748 5748 5747 5747 5746 5745 5744 5743 5743 5742 5742 5742 5742 5742 5741 5741 5741 5741 5741 5742 5742 5742 5743 5744 5744 5745 5745 5745 5746 5747 5747 5747 5748 5748 5747 5746 5747 5748 5749 5750 5751 5753 5754 5755 5756 5758 5759 5761 5763 5765 5768 5769 5770 5771 5773 5776 5778 5778 5781 5783 5785 5787 5791 5795 5797 5800 5803 5806 5807 5810 5814 5816 5818 5818 5819 5821 5826 5831 5834 5836 5839 5842 5846 5850 5853 5857 5860
5750 5749 5748 5748 5747 5746 5746 5745 5744 5743 5743 5743 5743 5743 5742 5742 5742 5742 5742 5742 5742 5742 5742 5743 5743 5743 5743 5744 5744 5744 5745 5744 5745 5745 5746 5746 5745 5745 5745 5745 5745 5746 5748 5750 5751 5752 5753 5754 5756 5757 5759 5761 5763 5765 5767 5769 5771 5772 5773 5774 5777 5780 5783 5787 5791 5793 5796 5799 5801 5803 5806 5809 5812 5814 5814 5816 5818 5821 5826 5830 5832 5835 5838 5842 5845 5849 5853 5856
5750 5750 5749 5748 5747 5746 5746 5745 5744 5744 5744 5743 5743 5743 5743 5742 5742 5742 5742 5741 5741 5741 5741 5741 5741 5742 5742 5742 5742 5742 5742 5742 5742 5742 5743 5743 5743 5743 5742 5742 5742 5743 5744 5745 5747 5748 5748 5749 5750 5752 5753 5755 5756 5758 5761 5763 5764 5765 5766 5767 5769 5772 5777 5783 5787 5789 5792 5794 5796 5798 5801 5803 5806 5808 5811 5813 5814 5817 5822 5825 5826 5828 5833 5837 5840 5844 5848 5852
5751 5750 5749 5748 5747 5746 5746 5745 5745 5744 5744 5744 5743 5743 5743 5743 5742 5742 5742 5741 5741 5740 5740 5740 5740 5740 5740 5740 5740 5740 5740 5740 5739 5739 5739 5739 5739 5739 5739 5739 5739 5739 5740 5741 5742 5743 5744 5744 5745 5746 5747 5748 5749 5750 5753 5755 5757 5759 5760 5762 5765 5768 5772 5778 5781 5782 5783 5786 5789 5791 5794 5796 5799 5803 5807 5810 5810 5811 5816 5820 5822 5822 5825 5830 5834 5838 5842 5846
5751 5750 5749 5748 5747 5746 5745 5745 5745 5745 5744 5744 5744 5743 5743 5743 5742 5742 5741 5741 5741 5740 5740 5740 5740 5739 5739 5739 5739 5738 5738 5737 5737 5736 5736 5736 5735 5735 5735 5735 5735 5735 5735 5736 5737 5738 5738 5738 5739 5739 5740 5741 5741 5742 5744 5747 5749 5753 5757 5760 5762 5763 5764 5768 5770 5770 5772 5777 5783 5786 5788 5791 5795 5799 5803 5806 5806 5806 5808 5815 5819 5819 5820 5825 5827 5830 5835 5841
5751 5750 5749 5748 5747 5746 5745 5745 5745 5745 5744 5744 5744 5743 5743 5742 5742 5742 5741 5741 5740 5740 5739 5739 5738 5738 5737 5737 5736 5736 5735 5734 5734 5733 5733 5732 5732 5732 5731 5731 5731 5731 5731 5731 5731 5732 5732 5733 5733 5733 5734 5734 5734 5735 5737 5738 5742 5748 5753 5753 5751 5750 5754 5759 5762 5763 5767 5773 5778 5781 5784 5788 5792 5795 5798 5801 5803 5803 5804 5810 5814 5814 5816 5821 5822 5823 5830 5836